| time (UTC) | temp F | wind direction | speed knots | gust knots | rain 1hr in | rain 24hr in | rain mn in | humidity % | barometer mb |
| 20260507023322 | 47 | 0 | 0.0 | 1.7 | 0.00 | 0.00 | 0.00 | 43 | 960.3 |
| 20260507022705 | 47 | 279 | 0.0 | 1.7 | 0.00 | 0.00 | 0.00 | 41 | 960.4 |
| 20260507022205 | 48 | 257 | 0.0 | 0.9 | 0.00 | 0.00 | 0.00 | 39 | 960.5 |
| 20260507021821 | 48 | 0 | 0.0 | 1.7 | 0.00 | 0.00 | 0.00 | 38 | 960.5 |
| 20260507021204 | 49 | 0 | 0.0 | 1.7 | 0.00 | 0.00 | 0.00 | 37 | 960.5 |
| 20260507020701 | 49 | 0 | 0.0 | 0.9 | 0.00 | 0.00 | 0.00 | 37 | 960.5 |
| 20260507020202 | 49 | 0 | 0.0 | 0.9 | 0.00 | 0.00 | 0.00 | 36 | 960.6 |
| 20260507015817 | 50 | 0 | 0.0 | 0.9 | 0.00 | 0.00 | 0.00 | 35 | 960.5 |
| 20260507015201 | 51 | 0 | 0.0 | 1.7 | 0.00 | 0.00 | 0.00 | 35 | 960.4 |
| 20260507014703 | 51 | 251 | 0.0 | 1.7 | 0.00 | 0.00 | 0.00 | 35 | 960.4 |
| 20260507014202 | 51 | 0 | 0.0 | 1.7 | 0.00 | 0.00 | 0.00 | 34 | 960.4 |
| 20260507013702 | 52 | 292 | 0.9 | 1.7 | 0.00 | 0.00 | 0.00 | 34 | 960.4 |
| 20260507013202 | 52 | 297 | 0.9 | 3.5 | 0.00 | 0.00 | 0.00 | 33 | 960.3 |
| 20260507012702 | 52 | 0 | 0.9 | 3.5 | 0.00 | 0.00 | 0.00 | 33 | 960.3 |
| 20260507012202 | 52 | 160 | 1.7 | 4.3 | 0.00 | 0.00 | 0.00 | 33 | 960.3 |
| 20260507011700 | 53 | 295 | 1.7 | 4.3 | 0.00 | 0.00 | 0.00 | 32 | 960.3 |
| 20260507011159 | 53 | 304 | 2.6 | 6.1 | 0.00 | 0.00 | 0.00 | 32 | 960.3 |
| 20260507010659 | 53 | 280 | 3.5 | 9.6 | 0.00 | 0.00 | 0.00 | 31 | 960.3 |
| 20260507010200 | 53 | 310 | 3.5 | 9.6 | 0.00 | 0.00 | 0.00 | 31 | 960.4 |
| 20260507005700 | 53 | 301 | 3.5 | 7.8 | 0.00 | 0.00 | 0.00 | 30 | 960.3 |
| 20260507005200 | 54 | 310 | 4.3 | 8.7 | 0.00 | 0.00 | 0.00 | 30 | 960.3 |
| 20260507004700 | 54 | 326 | 3.5 | 8.7 | 0.00 | 0.00 | 0.00 | 30 | 960.3 |
| 20260507004200 | 54 | 302 | 3.5 | 8.7 | 0.00 | 0.00 | 0.00 | 30 | 960.3 |
| 20260507003700 | 54 | 305 | 3.5 | 8.7 | 0.00 | 0.00 | 0.00 | 30 | 960.3 |
| 20260507003200 | 54 | 309 | 3.5 | 7.0 | 0.00 | 0.00 | 0.00 | 30 | 960.4 |
| 20260507002700 | 54 | 314 | 3.5 | 6.1 | 0.00 | 0.00 | 0.00 | 30 | 960.4 |
| 20260507002200 | 54 | 273 | 4.3 | 10.4 | 0.00 | 0.00 | 0.00 | 29 | 960.4 |
| 20260507001700 | 54 | 313 | 5.2 | 10.4 | 0.00 | 0.00 | 0.00 | 30 | 960.5 |
| 20260507001201 | 54 | 259 | 5.2 | 7.8 | 0.00 | 0.00 | 0.00 | 30 | 960.5 |
| 20260507000658 | 54 | 301 | 4.3 | 7.8 | 0.00 | 0.00 | 0.00 | 30 | 960.5 |
| 20260507000158 | 55 | 315 | 4.3 | 9.6 | 0.00 | 0.00 | 0.00 | 30 | 960.5 |
| 20260506235657 | 55 | 310 | 4.3 | 10.4 | 0.00 | 0.00 | 0.00 | 30 | 960.6 |
| 20260506235157 | 55 | 337 | 5.2 | 10.4 | 0.00 | 0.00 | 0.00 | 30 | 960.7 |
| 20260506234658 | 55 | 4 | 4.3 | 9.6 | 0.00 | 0.00 | 0.00 | 29 | 960.7 |
| 20260506234158 | 55 | 302 | 3.5 | 9.6 | 0.00 | 0.00 | 0.00 | 30 | 960.6 |
| 20260506233657 | 56 | 301 | 3.5 | 7.8 | 0.00 | 0.00 | 0.00 | 30 | 960.6 |
| 20260506233158 | 56 | 306 | 3.5 | 7.8 | 0.00 | 0.00 | 0.00 | 29 | 960.6 |
| 20260506232658 | 56 | 281 | 3.5 | 7.8 | 0.00 | 0.00 | 0.00 | 30 | 960.7 |
| 20260506232158 | 56 | 316 | 4.3 | 7.8 | 0.00 | 0.00 | 0.00 | 29 | 960.8 |
| 20260506231658 | 57 | 320 | 3.5 | 7.8 | 0.00 | 0.00 | 0.00 | 29 | 960.7 |
| 20260506231158 | 57 | 315 | 4.3 | 11.3 | 0.00 | 0.00 | 0.00 | 28 | 960.5 |
| 20260506230658 | 56 | 316 | 4.3 | 11.3 | 0.00 | 0.00 | 0.00 | 29 | 960.5 |
| 20260506230158 | 55 | 354 | 3.5 | 7.8 | 0.00 | 0.00 | 0.00 | 30 | 960.7 |
| 20260506225812 | 55 | 300 | 3.5 | 8.7 | 0.00 | 0.00 | 0.00 | 30 | 960.7 |
| 20260506225155 | 55 | 316 | 5.2 | 9.6 | 0.00 | 0.00 | 0.00 | 29 | 960.8 |
| 20260506224652 | 55 | 320 | 4.3 | 9.6 | 0.00 | 0.00 | 0.00 | 29 | 960.8 |
| 20260506224152 | 55 | 291 | 4.3 | 7.8 | 0.00 | 0.00 | 0.00 | 29 | 960.9 |
| 20260506223653 | 55 | 319 | 4.3 | 7.8 | 0.00 | 0.00 | 0.00 | 29 | 961.0 |
| 20260506223152 | 56 | 344 | 4.3 | 10.4 | 0.00 | 0.00 | 0.00 | 30 | 961.0 |
| 20260506222650 | 56 | 305 | 5.2 | 10.4 | 0.00 | 0.00 | 0.00 | 29 | 961.1 |
| 20260506222150 | 56 | 298 | 5.2 | 9.6 | 0.00 | 0.00 | 0.00 | 29 | 961.0 |
| 20260506221650 | 56 | 310 | 6.1 | 9.6 | 0.00 | 0.00 | 0.00 | 29 | 960.8 |
| 20260506221147 | 55 | 309 | 5.2 | 9.6 | 0.00 | 0.00 | 0.00 | 29 | 960.9 |
| 20260506220647 | 56 | 7 | 5.2 | 12.2 | 0.00 | 0.00 | 0.00 | 29 | 961.2 |
| 20260506220147 | 56 | 319 | 5.2 | 12.2 | 0.00 | 0.00 | 0.00 | 29 | 961.2 |
| 20260506215648 | 56 | 307 | 5.2 | 8.7 | 0.00 | 0.00 | 0.00 | 29 | 961.1 |
| 20260506215147 | 57 | 297 | 5.2 | 12.2 | 0.00 | 0.00 | 0.00 | 30 | 961.2 |
| 20260506214647 | 57 | 323 | 5.2 | 12.2 | 0.00 | 0.00 | 0.00 | 28 | 961.1 |
| 20260506214147 | 57 | 308 | 4.3 | 11.3 | 0.00 | 0.00 | 0.00 | 29 | 961.0 |
| 20260506213648 | 57 | 285 | 5.2 | 11.3 | 0.00 | 0.00 | 0.00 | 28 | 961.3 |
| 20260506213147 | 56 | 317 | 5.2 | 9.6 | 0.00 | 0.00 | 0.00 | 29 | 961.1 |
| 20260506212647 | 55 | 291 | 4.3 | 9.6 | 0.00 | 0.00 | 0.00 | 30 | 961.2 |
| 20260506212145 | 55 | 302 | 5.2 | 12.2 | 0.00 | 0.00 | 0.00 | 30 | 961.5 |
| 20260506211645 | 55 | 312 | 5.2 | 12.2 | 0.00 | 0.00 | 0.00 | 31 | 961.6 |
| 20260506211145 | 55 | 186 | 5.2 | 9.6 | 0.00 | 0.00 | 0.00 | 31 | 961.5 |
| 20260506210644 | 55 | 308 | 4.3 | 7.8 | 0.00 | 0.00 | 0.00 | 32 | 961.7 |
| 20260506210145 | 55 | 1 | 5.2 | 11.3 | 0.00 | 0.00 | 0.00 | 32 | 961.9 |
| 20260506205645 | 55 | 254 | 5.2 | 11.3 | 0.00 | 0.00 | 0.00 | 32 | 961.9 |
| 20260506205144 | 55 | 292 | 4.3 | 10.4 | 0.00 | 0.00 | 0.00 | 32 | 961.6 |
| 20260506204644 | 55 | 312 | 4.3 | 8.7 | 0.00 | 0.00 | 0.00 | 32 | 962.0 |
| 20260506204144 | 54 | 181 | 4.3 | 9.6 | 0.00 | 0.00 | 0.00 | 33 | 962.0 |
| 20260506203645 | 54 | 302 | 4.3 | 9.6 | 0.00 | 0.00 | 0.00 | 33 | 962.1 |
| 20260506203145 | 53 | 330 | 4.3 | 10.4 | 0.00 | 0.00 | 0.00 | 34 | 962.2 |
| 20260506202645 | 54 | 310 | 5.2 | 10.4 | 0.00 | 0.00 | 0.00 | 33 | 962.3 |
| 20260506202256 | 54 | 304 | 5.2 | 12.2 | 0.00 | 0.00 | 0.00 | 34 | 962.2 |
| 20260506201646 | 54 | 333 | 5.2 | 12.2 | 0.00 | 0.00 | 0.00 | 34 | 962.2 |
| 20260506201142 | 54 | 317 | 5.2 | 10.4 | 0.00 | 0.00 | 0.00 | 34 | 962.3 |
| 20260506200643 | 54 | 322 | 5.2 | 10.4 | 0.00 | 0.00 | 0.00 | 34 | 962.3 |
| 20260506200142 | 55 | 352 | 4.3 | 9.6 | 0.00 | 0.00 | 0.00 | 34 | 962.2 |
| 20260506195642 | 55 | 325 | 4.3 | 9.6 | 0.00 | 0.00 | 0.00 | 33 | 962.3 |
| 20260506195254 | 54 | 345 | 3.5 | 8.7 | 0.00 | 0.00 | 0.00 | 33 | 962.3 |
| 20260506194643 | 54 | 326 | 5.2 | 11.3 | 0.00 | 0.00 | 0.00 | 34 | 962.3 |
| 20260506194143 | 54 | 330 | 4.3 | 11.3 | 0.00 | 0.00 | 0.00 | 34 | 962.5 |
| 20260506193643 | 54 | 308 | 4.3 | 9.6 | 0.00 | 0.00 | 0.00 | 34 | 962.5 |
| 20260506193142 | 54 | 279 | 5.2 | 9.6 | 0.00 | 0.00 | 0.00 | 35 | 962.5 |
| 20260506192643 | 53 | 324 | 4.3 | 11.3 | 0.00 | 0.00 | 0.00 | 35 | 962.6 |
| 20260506192143 | 54 | 331 | 5.2 | 12.2 | 0.00 | 0.00 | 0.00 | 33 | 962.8 |
| 20260506191644 | 54 | 283 | 5.2 | 12.2 | 0.00 | 0.00 | 0.00 | 34 | 962.6 |
| 20260506191254 | 55 | 301 | 5.2 | 10.4 | 0.00 | 0.00 | 0.00 | 33 | 962.6 |
| 20260506190644 | 54 | 314 | 4.3 | 9.6 | 0.00 | 0.00 | 0.00 | 34 | 962.3 |
| 20260506190255 | 53 | 169 | 4.3 | 11.3 | 0.00 | 0.00 | 0.00 | 34 | 962.5 |
| 20260506185643 | 53 | 288 | 5.2 | 11.3 | 0.00 | 0.00 | 0.00 | 35 | 962.7 |
| 20260506185143 | 52 | 327 | 5.2 | 12.2 | 0.00 | 0.00 | 0.00 | 35 | 962.7 |
| 20260506184641 | 52 | 310 | 5.2 | 12.2 | 0.00 | 0.00 | 0.00 | 34 | 963.0 |
| 20260506184248 | 52 | 329 | 5.2 | 12.2 | 0.00 | 0.00 | 0.00 | 37 | 962.6 |
| 20260506183640 | 52 | 325 | 6.1 | 13.9 | 0.00 | 0.00 | 0.00 | 36 | 962.9 |
| 20260506183141 | 52 | 342 | 6.1 | 13.9 | 0.00 | 0.00 | 0.00 | 36 | 963.1 |
| 20260506182641 | 52 | 60 | 5.2 | 12.2 | 0.00 | 0.00 | 0.00 | 36 | 963.4 |
| 20260506182141 | 53 | 287 | 4.3 | 10.4 | 0.00 | 0.00 | 0.00 | 36 | 963.1 |
| 20260506181640 | 52 | 334 | 5.2 | 12.2 | 0.00 | 0.00 | 0.00 | 37 | 962.8 |
| 20260506181141 | 52 | 309 | 5.2 | 12.2 | 0.00 | 0.00 | 0.00 | 37 | 963.3 |
| 20260506180641 | 52 | 301 | 4.3 | 10.4 | 0.00 | 0.00 | 0.00 | 37 | 963.3 |
| 20260506180141 | 53 | 290 | 5.2 | 9.6 | 0.00 | 0.00 | 0.00 | 37 | 963.3 |
| 20260506175750 | 52 | 303 | 5.2 | 13.0 | 0.00 | 0.00 | 0.00 | 37 | 963.3 |
| 20260506175141 | 52 | 281 | 5.2 | 13.0 | 0.00 | 0.00 | 0.00 | 37 | 963.2 |
| 20260506174750 | 52 | 336 | 5.2 | 10.4 | 0.00 | 0.00 | 0.00 | 37 | 963.3 |
| 20260506174140 | 52 | 348 | 5.2 | 10.4 | 0.00 | 0.00 | 0.00 | 38 | 963.4 |
| 20260506173639 | 52 | 311 | 6.1 | 9.6 | 0.00 | 0.00 | 0.00 | 36 | 963.5 |
| 20260506173249 | 51 | 317 | 5.2 | 9.6 | 0.00 | 0.00 | 0.00 | 36 | 963.3 |
| 20260506172639 | 51 | 234 | 5.2 | 9.6 | 0.00 | 0.00 | 0.00 | 37 | 963.3 |
| 20260506172136 | 49 | 297 | 5.2 | 10.4 | 0.00 | 0.00 | 0.00 | 38 | 963.8 |
| 20260506171635 | 50 | 314 | 6.1 | 11.3 | 0.00 | 0.00 | 0.00 | 38 | 963.8 |
| 20260506171136 | 50 | 323 | 6.1 | 11.3 | 0.00 | 0.00 | 0.00 | 38 | 963.9 |
| 20260506170635 | 49 | 330 | 5.2 | 10.4 | 0.00 | 0.00 | 0.00 | 38 | 963.6 |
| 20260506170136 | 49 | 308 | 5.2 | 11.3 | 0.00 | 0.00 | 0.00 | 39 | 964.0 |
| 20260506165636 | 50 | 264 | 5.2 | 11.3 | 0.00 | 0.00 | 0.00 | 38 | 964.0 |
| 20260506165136 | 50 | 300 | 5.2 | 10.4 | 0.00 | 0.00 | 0.00 | 38 | 963.7 |
| 20260506164636 | 50 | 297 | 5.2 | 10.4 | 0.00 | 0.00 | 0.00 | 39 | 963.7 |
| 20260506164136 | 50 | 288 | 5.2 | 11.3 | 0.00 | 0.00 | 0.00 | 39 | 964.1 |
| 20260506163637 | 50 | 281 | 5.2 | 11.3 | 0.00 | 0.00 | 0.00 | 39 | 963.8 |
| 20260506163136 | 49 | 312 | 5.2 | 11.3 | 0.00 | 0.00 | 0.00 | 40 | 964.1 |
| 20260506162636 | 49 | 322 | 5.2 | 11.3 | 0.00 | 0.00 | 0.00 | 40 | 963.7 |
| 20260506162136 | 49 | 277 | 5.2 | 11.3 | 0.00 | 0.00 | 0.00 | 39 | 964.4 |
| 20260506161636 | 50 | 299 | 5.2 | 11.3 | 0.00 | 0.00 | 0.00 | 40 | 963.8 |
| 20260506161133 | 49 | 321 | 5.2 | 13.0 | 0.00 | 0.00 | 0.00 | 41 | 963.8 |
| 20260506160634 | 49 | 338 | 5.2 | 14.8 | 0.00 | 0.00 | 0.00 | 40 | 963.8 |
| 20260506160130 | 49 | 288 | 4.3 | 14.8 | 0.00 | 0.00 | 0.00 | 43 | 963.8 |
| 20260506155628 | 48 | 326 | 4.3 | 9.6 | 0.00 | 0.00 | 0.00 | 42 | 963.8 |
| 20260506155234 | 48 | 306 | 5.2 | 9.6 | 0.00 | 0.00 | 0.00 | 43 | 963.9 |
| 20260506154628 | 48 | 316 | 5.2 | 10.4 | 0.00 | 0.00 | 0.00 | 43 | 964.0 |
| 20260506154127 | 48 | 322 | 4.3 | 10.4 | 0.00 | 0.00 | 0.00 | 44 | 963.8 |
| 20260506153627 | 47 | 308 | 4.3 | 10.4 | 0.00 | 0.00 | 0.00 | 45 | 963.9 |
| 20260506153128 | 46 | 323 | 5.2 | 11.3 | 0.00 | 0.00 | 0.00 | 46 | 964.1 |
| 20260506152733 | 46 | 340 | 5.2 | 11.3 | 0.00 | 0.00 | 0.00 | 46 | 964.1 |
| 20260506152128 | 46 | 327 | 5.2 | 10.4 | 0.00 | 0.00 | 0.00 | 46 | 964.0 |
| 20260506151733 | 46 | 307 | 5.2 | 10.4 | 0.00 | 0.00 | 0.00 | 47 | 964.0 |
| 20260506151125 | 46 | 316 | 5.2 | 10.4 | 0.00 | 0.00 | 0.00 | 46 | 964.0 |
| 20260506150625 | 46 | 143 | 5.2 | 9.6 | 0.00 | 0.00 | 0.00 | 47 | 963.9 |
| 20260506150126 | 45 | 325 | 5.2 | 10.4 | 0.00 | 0.00 | 0.00 | 47 | 964.1 |
| 20260506145626 | 45 | 320 | 4.3 | 10.4 | 0.00 | 0.00 | 0.00 | 49 | 964.1 |
| 20260506145123 | 45 | 296 | 5.2 | 10.4 | 0.00 | 0.00 | 0.00 | 48 | 964.1 |
| 20260506144619 | 45 | 309 | 4.3 | 8.7 | 0.00 | 0.00 | 0.00 | 49 | 964.2 |
| 20260506144119 | 44 | 302 | 3.5 | 7.8 | 0.00 | 0.00 | 0.00 | 50 | 964.1 |
| 20260506143731 | 44 | 359 | 3.5 | 6.1 | 0.00 | 0.00 | 0.00 | 49 | 964.2 |
| 20260506143116 | 44 | 336 | 3.5 | 6.1 | 0.00 | 0.00 | 0.00 | 50 | 964.1 |
| 20260506142617 | 44 | 326 | 2.6 | 6.1 | 0.00 | 0.00 | 0.00 | 51 | 964.2 |
| 20260506142231 | 43 | 340 | 2.6 | 5.2 | 0.00 | 0.00 | 0.00 | 50 | 964.2 |
| 20260506141614 | 43 | 310 | 2.6 | 5.2 | 0.00 | 0.00 | 0.00 | 51 | 964.1 |
| 20260506141113 | 43 | 310 | 2.6 | 5.2 | 0.00 | 0.00 | 0.00 | 50 | 964.1 |
| 20260506140614 | 43 | 346 | 1.7 | 5.2 | 0.00 | 0.00 | 0.00 | 52 | 964.1 |
| 20260506140114 | 43 | 320 | 1.7 | 4.3 | 0.00 | 0.00 | 0.00 | 53 | 964.1 |
| 20260506135614 | 42 | 284 | 1.7 | 4.3 | 0.00 | 0.00 | 0.00 | 55 | 964.0 |
| 20260506135231 | 42 | 157 | 0.9 | 3.5 | 0.00 | 0.00 | 0.00 | 57 | 964.0 |
| 20260506134731 | 42 | 340 | 0.9 | 3.5 | 0.00 | 0.00 | 0.00 | 60 | 964.0 |
| 20260506134232 | 42 | 263 | 0.9 | 3.5 | 0.00 | 0.00 | 0.00 | 62 | 964.1 |
| 20260506133612 | 42 | 323 | 0.9 | 5.2 | 0.00 | 0.00 | 0.00 | 62 | 964.1 |
| 20260506133111 | 41 | 324 | 0.9 | 5.2 | 0.00 | 0.00 | 0.00 | 62 | 964.1 |
| 20260506132612 | 41 | 0 | 1.7 | 6.1 | 0.00 | 0.00 | 0.00 | 63 | 964.0 |
| 20260506132109 | 40 | 250 | 1.7 | 6.1 | 0.00 | 0.00 | 0.00 | 64 | 963.9 |
| 20260506131608 | 39 | 304 | 1.7 | 5.2 | 0.00 | 0.00 | 0.00 | 66 | 963.8 |
| 20260506131108 | 38 | 289 | 0.9 | 3.5 | 0.00 | 0.00 | 0.00 | 68 | 963.8 |
| 20260506130608 | 38 | 305 | 0.9 | 3.5 | 0.00 | 0.00 | 0.00 | 67 | 963.8 |
| 20260506130226 | 38 | 262 | 0.9 | 2.6 | 0.00 | 0.00 | 0.00 | 68 | 963.8 |
| 20260506125606 | 37 | 123 | 0.9 | 1.7 | 0.00 | 0.00 | 0.00 | 67 | 963.8 |
| 20260506125105 | 37 | 329 | 0.0 | 1.7 | 0.00 | 0.00 | 0.00 | 68 | 963.7 |
| 20260506124723 | 36 | 298 | 0.0 | 1.7 | 0.00 | 0.00 | 0.00 | 68 | 963.7 |
| 20260506124106 | 34 | 0 | 0.0 | 1.7 | 0.00 | 0.00 | 0.00 | 71 | 963.7 |
| 20260506123737 | 33 | 272 | 0.0 | 1.7 | 0.00 | 0.00 | 0.00 | 73 | 963.7 |
| 20260506123106 | 32 | 0 | 0.0 | 1.7 | 0.00 | 0.00 | 0.00 | 75 | 963.7 |
| 20260506122606 | 31 | 205 | 0.0 | 1.7 | 0.00 | 0.00 | 0.00 | 76 | 963.7 |
| 20260506122106 | 31 | 0 | 0.0 | 1.7 | 0.00 | 0.00 | 0.00 | 78 | 963.8 |
| 20260506121606 | 30 | 0 | 0.0 | 0.9 | 0.00 | 0.00 | 0.00 | 79 | 963.8 |
| 20260506121106 | 30 | 0 | 0.0 | 1.7 | 0.00 | 0.00 | 0.00 | 80 | 963.7 |
| 20260506120606 | 30 | 0 | 0.0 | 1.7 | 0.00 | 0.00 | 0.00 | 80 | 963.6 |
| 20260506120107 | 30 | 0 | 0.0 | 0.9 | 0.00 | 0.00 | 0.00 | 81 | 963.7 |
| 20260506115606 | 30 | 0 | 0.0 | 0.9 | 0.00 | 0.00 | 0.00 | 81 | 963.7 |
| 20260506115104 | 29 | 186 | 0.0 | 0.9 | 0.00 | 0.00 | 0.00 | 81 | 963.6 |
| 20260506114603 | 29 | 0 | 0.0 | 0.9 | 0.00 | 0.00 | 0.00 | 81 | 963.5 |
| 20260506114223 | 29 | 0 | 0.0 | 1.7 | 0.00 | 0.00 | 0.00 | 81 | 963.4 |
| 20260506113603 | 29 | 0 | 0.0 | 1.7 | 0.00 | 0.00 | 0.00 | 81 | 963.4 |
| 20260506113221 | 29 | 253 | 0.0 | 1.7 | 0.00 | 0.00 | 0.00 | 81 | 963.4 |
| 20260506112557 | 29 | 0 | 0.0 | 1.7 | 0.00 | 0.00 | 0.00 | 82 | 963.2 |
| 20260506112057 | 28 | 0 | 0.0 | 0.9 | 0.00 | 0.00 | 0.00 | 83 | 963.3 |
| 20260506111558 | 28 | 0 | 0.0 | 0.9 | 0.00 | 0.00 | 0.00 | 82 | 963.3 |
| 20260506111057 | 29 | 0 | 0.0 | 1.7 | 0.00 | 0.00 | 0.00 | 81 | 963.3 |
| 20260506110558 | 29 | 0 | 0.0 | 1.7 | 0.00 | 0.00 | 0.00 | 80 | 963.2 |
| 20260506110058 | 29 | 311 | 0.0 | 1.7 | 0.00 | 0.00 | 0.00 | 80 | 963.2 |
| 20260506105558 | 29 | 288 | 0.9 | 1.7 | 0.00 | 0.00 | 0.00 | 80 | 963.2 |
| 20260506105221 | 28 | 286 | 0.0 | 1.7 | 0.00 | 0.00 | 0.00 | 81 | 963.1 |
| 20260506104558 | 28 | 0 | 0.0 | 1.7 | 0.00 | 0.00 | 0.00 | 80 | 963.2 |
| 20260506104058 | 28 | 0 | 0.0 | 1.7 | 0.00 | 0.00 | 0.00 | 81 | 963.1 |
| 20260506103558 | 28 | 0 | 0.0 | 1.7 | 0.00 | 0.00 | 0.00 | 79 | 963.2 |
| 20260506103221 | 29 | 0 | 0.0 | 1.7 | 0.00 | 0.00 | 0.00 | 79 | 963.1 |
| 20260506102559 | 29 | 0 | 0.0 | 0.9 | 0.00 | 0.00 | 0.00 | 79 | 963.0 |
| 20260506101510 | 29 | 0 | 0.0 | 0.9 | 0.00 | 0.00 | 0.00 | 78 | 963.2 |
| 20260506101009 | 29 | 0 | 0.0 | 0.9 | 0.00 | 0.00 | 0.00 | 78 | 963.1 |
| 20260506100508 | 29 | 220 | 0.0 | 0.9 | 0.00 | 0.00 | 0.00 | 77 | 963.0 |
| 20260506100006 | 29 | 230 | 0.0 | 0.9 | 0.00 | 0.00 | 0.00 | 77 | 963.0 |
| 20260506095506 | 29 | 0 | 0.0 | 0.9 | 0.00 | 0.00 | 0.00 | 76 | 963.0 |
| 20260506095006 | 29 | 298 | 0.0 | 0.9 | 0.00 | 0.00 | 0.00 | 76 | 963.0 |
| 20260506092208 | 31 | 288 | 0.0 | 1.7 | 0.00 | 0.00 | 0.00 | 74 | 962.8 |
| 20260506071657 | 35 | 78 | 0.9 | 2.6 | 0.00 | 0.00 | 0.00 | 67 | 961.9 |
| 20260506071158 | 35 | 301 | 0.9 | 2.6 | 0.00 | 0.00 | 0.00 | 67 | 962.0 |
| 20260506050150 | 38 | 312 | 2.6 | 5.2 | 0.00 | 0.00 | 0.00 | 59 | 961.7 |
| 20260506044650 | 38 | 302 | 2.6 | 6.1 | 0.00 | 0.00 | 0.00 | 58 | 961.8 |
| 20260506042641 | 39 | 330 | 3.5 | 6.1 | 0.00 | 0.00 | 0.00 | 57 | 961.8 |
| 20260506040640 | 38 | 319 | 2.6 | 5.2 | 0.00 | 0.00 | 0.00 | 57 | 962.0 |
| 20260506033141 | 40 | 304 | 0.9 | 3.5 | 0.00 | 0.00 | 0.00 | 54 | 961.9 |
| 20260506030133 | 41 | 301 | 1.7 | 4.3 | 0.00 | 0.00 | 0.00 | 50 | 961.6 |
| 20260506025634 | 41 | 305 | 1.7 | 4.3 | 0.00 | 0.00 | 0.00 | 50 | 961.6 |
| 20260506024133 | 42 | 352 | 1.7 | 5.2 | 0.00 | 0.00 | 0.00 | 50 | 961.4 |